623  
ASUS41 KALY 202010  
RWRALY  
 
NEW YORK STATE HOURLY WEATHER ROUNDUP  
NATIONAL WEATHER SERVICE ALBANY NY  
400 PM EDT THU JUL 20 2017  
 
NOTE: "FAIR" INDICATES FEW OR NO CLOUDS BELOW 12,000 FEET WITH NO  
SIGNIFICANT WEATHER AND/OR NO S TO VISIBILITY
.  
 
NYZ032-033-038>043-046>054-057>066-NYZ062>081-082-084-202100-  
EAST  
 
 
CITY SKY/WX TMP DP RH WIND PRES REMARKS
 
ALBANY CLOUDY 83 65 54 NW13 29.91R  
GLENS FALLS CLOUDY 81 65 58 W3 29.90R  
POUGHKEEPSIE MOSUNNY 92 66 42 SW13 29.86F HX 94  
NEWBURGH MOSUNNY 91 70 49 W12G17 29.91F HX 97  
MONTGOMERY MOSUNNY 91 68 46 W10 29.89F HX 95  
WHITE PLAINS MOSUNNY 91 63 38 W5 29.90F HX 92  
ISLIP MOSUNNY 84 73 69 S12 29.89F HX 90  
NEW YORK CITY MOSUNNY 96 63 33 W12 29.86F HX 97  
CENTRAL PARK SUNNY 92 64 39 W7 29.91F HX 93  

 
 
NYZ005>009-017-018-044>046-055-056-202100-  
CENTRAL  
 
 
CITY SKY/WX TMP DP RH WIND PRES REMARKS
 
FULTON CLOUDY 71 66 84 VRB6 29.90F  
SYRACUSE LGT RAIN 71 64 78 E6 29.91F  
ROME LGT RAIN 72 65 78 CALM 29.93F  
ELMIRA CLOUDY 70 67 90 N9G20 29.96R FOG  
BINGHAMTON TSTM 73 68 84 N9 29.96F  

 
 
NYZ026>034-041>043-087-202100-  
NORTH  
 
 
CITY SKY/WX TMP DP RH WIND PRES REMARKS
 
WATERTOWN MOSUNNY 75 60 59 N7 29.90R  
FORT DRUM NOT AVBL  
OGDENSBURG FAIR 80 65 61 SW10 29.88S  
MASSENA PTSUNNY 81 69 67 SW10 29.87F  
SARANAC LAKE CLOUDY 73 59 61 W10G21 29.92F  
PLATTSBURGH CLOUDY 83 61 47 VRB5 29.84F  

 
 
NYZ001>004-010>016-019>021-085-202100-  
WEST  
 
 
CITY SKY/WX TMP DP RH WIND PRES REMARKS
 
NIAGARA FALLS CLOUDY 70 59 68 S8 29.94F  
BUFFALO CLOUDY 67 62 84 SE7 29.94F  
DUNKIRK CLOUDY 77 70 79 NW9 29.94F  
JAMESTOWN PTSUNNY 82 64 54 NW22 29.99S  
WELLSVILLE LGT RAIN 71 67 87 N7 30.02S FOG  
ROCHESTER PTSUNNY 70 61 73 SW7 29.93F  
PENN YAN LGT RAIN 69 64 84 CALM 29.97F  

 
 
KEY  
WCI = WIND CHILL INDEX  
VSB = VISIBILITY  
HX = HEAT INDEX  

 
 
 
CLICK HERE TO GO TO PREVIOUS BULLETINS.

The Nexlab NY Page
The Nexlab VT Page
The Nexlab MA Page
The Nexlab CT Page Main Text Page